Regional Weather Roundup
Issued by NWS Jackson, KY

Home | Current Version | Previous Version | Graphics & Text | Print | Product List | Glossary On
Versions: 1 2 3 4 5 6 7 8 9 10 11 12 13 14 15 16 17 18 19 20 21 22 23 24 25 26 27
000
ASUS43 KJKL 281110
RWRJKL

EAST KENTUCKY HOURLY WEATHER ROUNDUP
NATIONAL WEATHER SERVICE JACKSON KY
700 AM EDT SAT MAY 28 2016

NOTE: "FAIR" INDICATES FEW OR NO CLOUDS BELOW 12,000 FEET WITH
NO SIGNIFICANT WEATHER AND/OR OBSTRUCTIONS TO VISIBILITY.

* THESE REPORTS ARE NOT UNDER NWS QUALITY CONTROL AND MAY NOT
  REPORT WEATHER SUCH AS PRECIPITATION AND FOG.

KYZ079-080-083-085-087-088-110-112-115-119-120-281200
...EASTERN KENTUCKY...

CITY           SKY/WX    TMP DP  RH WIND       PRES   REMARKS
JACKSON        PTCLDY    66  63  90 CALM      30.13R
LONDON         CLEAR     64  61  90 CALM      30.12R
SOMERSET*      CLEAR     61  61 100 CALM      30.12R FOG
MONTICELLO*    PTCLDY    68  63  84 NE9       30.11R
WILLIAMSBURG*  SUNNY     63  63 100 SE3       30.12R
MIDDLESBORO*   FOG       60  60 100 CALM      30.15R VSB<1/4
HARLAN APT*    CLOUDY   N/A N/A N/A CALM      30.16R
HAZARD APT*    FOG       64  64 100 CALM      30.13  VSB 3/4
BLACK MTN*       N/A     61  59  94 SE6         N/A
PIKE CO APT*     N/A     67  64  90 SE7       30.14R
BIG SANDY APT* SUNNY     69  64  82 SE3       30.13R
MOREHEAD APT*  MOSUNNY   68  64  88 SE5       30.12R
ASHLAND*       PTCLDY    66  64  94 CALM      30.08R
$$

KYZ035-036-041-042-044-050-067-078-099-281200
...CENTRAL KENTUCKY...

CITY           SKY/WX    TMP DP  RH WIND       PRES   REMARKS
MT STERLING*   CLEAR     68  64  88 S3        30.12R
FLEMING/MASON* CLEAR    N/A N/A N/A S5        30.11R
DANVILLE*      CLEAR     63  63 100 CALM      30.10R
RICHMOND*      CLEAR     68  61  77 CALM      30.09R
LEXINGTON      CLEAR     68  63  84 S7        30.09R
FRANKFORT      PTCLDY    67  63  87 SE5       30.06R
LOUISVILLE     CLOUDY    69  66  90 SE8       30.04R
LEBANON*         N/A     68  64  88 SE7       30.07R
GLASGOW*       CLOUDY    69  68  99 SE3       30.05S
BOWLING GREEN  CLOUDY    70  67  90 CALM      30.04R
$$

KYZ091>093-OHZ055-061-077-WVZ005-015-034-035-042-281200
...SOUTHERN OHIO/WEST VIRGINIA...

CITY           SKY/WX    TMP DP  RH WIND       PRES   REMARKS
COVINGTON      PTCLDY    67  65  93 S7        30.06
COLUMBUS       MOCLDY    69  65  86 CALM      30.07R
DAYTON         PTCLDY    70  64  81 S10       30.07R
WILMINGTON     PTCLDY    68  63  84 S8        30.07R
HUNTINGTON       N/A     68  64  87 CALM      30.10R
CHARLESTON     MOCLDY    64  62  93 CALM      30.13R
PINEVILLE*     CLOUDY    61  58  91 MISG      30.23R FOG
BECKLEY          N/A     65  59  81 S7        30.21R
BLUEFIELD        N/A     62  57  83 CALM      30.24R
LOGAN CO APT*    N/A     68  63  83 CALM      30.15R
$$

VAZ002-007-008-TNZ017-027-036-066-071-281200
...SOUTHWEST VIRGINIA/EAST TENNESSEE...

CITY           SKY/WX    TMP DP  RH WIND       PRES   REMARKS
WISE*            N/A     61  61 100 CALM      30.21S
JONESVILLE*      N/A     59  59 100 CALM      30.17R FOG
ABINGDON*        N/A     61  61  99 E3        30.19R FOG
BRISTOL        PTCLDY    60  60 100 CALM      30.16S FOG
SEVIERVILLE*   CLOUDY    61  61 100 CALM      30.12R VSB 1/2
KNOXVILLE      FOG       64  64 100 CALM      30.11R VSB 1/4
OAK RIDGE      FOG       66  64  93 CALM      30.14R VSB 1/4
CROSSVILLE     CLEAR     67  59  75 S5        30.14R
NASHVILLE      CLOUDY    73  63  70 SE7       30.04R
$$

...KEY TO REMARKS...
VSB - VISIBILITY IN MILES
WCI - WIND CHILL INDEX
HX  - HEAT INDEX

$$




USA.gov is the U.S. government's official web portal to all federal, state and local government web resources and services.